Renton, WA

12:00 PM PST on February 13, 2016 (GMT -0800)
Renton Municipal

Weather History for KRNT - May, 2013

Change the Weather History Date:

Wednesday, May 8, 2013

  Actual Average Record
Temperature  
Mean Temperature 58 °F -  
Max Temperature 66 °F 61 °F 78 °F (1997)
Min Temperature 53 °F 45 °F 37 °F (1999)
Degree Days  
Heating Degree Days 6    
Growing Degree Days 8 (Base 50)    
Moisture  
Dew Point 50 °F    
Average Humidity 78    
Maximum Humidity 89    
Minimum Humidity 61    
Precipitation  
Precipitation 0.00 in - - ()
Sea Level Pressure  
Sea Level Pressure 30.13 in    
Wind  
Wind Speed 5 mph (SSW)    
Max Wind Speed 9 mph    
Max Gust Speed -    
Visibility 9 miles    
Events      
Averages and records for this station are not official NWS values.
T = Trace of Precipitation, MM = Missing Value Source: NWS Daily Summary

Daily Weather History Graph

Daily Weather History Graph

Search for Another Location

Airport or City:

Trip Planner

Search our weather history database for the weather conditions in past years. The results will help you decide how hot, cold, wet, or windy it might be!

Date:

Astronomy

May. 08, 2013 Rise Set
Actual Time 5:40 AM PDT 8:30 PM PDT
Civil Twilight 5:05 AM PDT 9:06 PM PDT
Nautical Twilight 4:20 AM PDT 9:51 PM PDT
Astronomical Twilight 3:26 AM PDT 10:46 PM PDT
Moon 4:57 AM PDT (5/8) 7:31 PM PDT (5/8)
Length of Visible Light 16h 00m
Length of Day
14h 49m
Waning Crescent, 1% of the Moon is Illuminated
May 8
Waning Crescent
May 9
New
May 17
First Quarter
May 24
Full
May 31
Last Quarter

Hourly Weather History & Observations

Time (PDT) Temp. Dew Point Humidity Pressure Visibility Wind Dir Wind Speed Gust Speed Precip Events Conditions
12:53 AM 55.0 °F 48.9 °F 80% 30.06 in 10.0 mi SSE 6.9 mph - N/A   Clear
1:53 AM 53.1 °F 48.9 °F 86% 30.07 in 10.0 mi SSE 5.8 mph - N/A   Clear
2:26 AM 53.6 °F 48.2 °F 82% 30.06 in 10.0 mi South 4.6 mph - N/A   Mostly Cloudy
2:53 AM 53.1 °F 48.9 °F 86% 30.08 in 10.0 mi SSE 9.2 mph - N/A   Overcast
3:53 AM 54.0 °F 48.9 °F 83% 30.10 in 10.0 mi South 6.9 mph - N/A   Overcast
4:53 AM 53.1 °F 48.0 °F 83% 30.10 in 10.0 mi SSW 4.6 mph - N/A   Overcast
5:53 AM 53.1 °F 48.9 °F 86% 30.11 in 10.0 mi South 5.8 mph - N/A   Overcast
6:53 AM 54.0 °F 48.9 °F 83% 30.12 in 8.0 mi SSE 3.5 mph - N/A   Overcast
7:51 AM 53.6 °F 50.0 °F 88% 30.12 in 5.0 mi SSW 4.6 mph - N/A   Overcast
7:53 AM 54.0 °F 50.0 °F 86% 30.14 in 5.0 mi South 4.6 mph - N/A   Overcast
8:53 AM 53.1 °F 50.0 °F 89% 30.14 in 7.0 mi SSW 3.5 mph - N/A   Overcast
9:06 AM 53.6 °F 50.0 °F 88% 30.13 in 7.0 mi South 3.5 mph - N/A   Overcast
9:09 AM 55.4 °F 50.0 °F 82% 30.13 in 7.0 mi SSW 3.5 mph - N/A   Overcast
9:53 AM 54.0 °F 50.0 °F 86% 30.15 in 8.0 mi Calm Calm - N/A   Overcast
10:53 AM 55.0 °F 48.9 °F 80% 30.16 in 9.0 mi Calm Calm - N/A   Overcast
11:06 AM 55.4 °F 48.2 °F 77% 30.15 in 10.0 mi Variable 3.5 mph - N/A   Overcast
11:13 AM 55.4 °F 48.2 °F 77% 30.15 in 10.0 mi Calm Calm - N/A   Overcast
11:53 AM 57.0 °F 48.9 °F 74% 30.17 in 10.0 mi Variable 3.5 mph - N/A   Overcast
12:53 PM 57.0 °F 48.9 °F 74% 30.16 in 10.0 mi Variable 3.5 mph - N/A   Overcast
1:53 PM 60.1 °F 50.0 °F 69% 30.16 in 10.0 mi SW 5.8 mph - N/A   Overcast
2:53 PM 61.0 °F 50.0 °F 67% 30.16 in 10.0 mi Calm Calm - N/A   Mostly Cloudy
3:03 PM 60.8 °F 50.0 °F 68% 30.14 in 10.0 mi Variable 3.5 mph - N/A   Partly Cloudy
3:53 PM 63.0 °F 52.0 °F 67% 30.14 in 10.0 mi NNW 6.9 mph - N/A   Clear
4:53 PM 64.9 °F 52.0 °F 63% 30.13 in 10.0 mi NNW 5.8 mph - N/A   Clear
5:53 PM 64.9 °F 51.1 °F 61% 30.13 in 10.0 mi NNW 4.6 mph - N/A   Clear
6:53 PM 64.9 °F 52.0 °F 63% 30.11 in 10.0 mi NNW 4.6 mph - N/A   Clear
7:53 PM 63.0 °F 52.0 °F 67% 30.11 in 10.0 mi NW 3.5 mph - N/A   Clear
8:53 PM 61.0 °F 51.1 °F 70% 30.12 in 10.0 mi Calm Calm - N/A   Clear
9:53 PM 57.9 °F 54.0 °F 87% 30.14 in 10.0 mi Calm Calm - N/A   Clear
10:53 PM 57.0 °F 52.0 °F 83% 30.15 in 10.0 mi Calm Calm - N/A   Clear
11:53 PM 55.9 °F 52.0 °F 87% 30.16 in 10.0 mi Calm Calm - N/A   Clear